owner,sensor,date,latitude,longitude,vertical_datum,mass_concentration_of_oxygen_in_sea_water,qcFlag 
DISL,ioos:station:DISL:DISL:1,2015-07-01T00:00:00Z,30.2513,-88.0778,1.652,7.89,1111122 
DISL,ioos:station:DISL:DISL:1,2015-07-01T00:30:00Z,30.2513,-88.0778,1.673,8.21,1111122 
DISL,ioos:station:DISL:DISL:1,2015-07-01T01:00:00Z,30.2513,-88.0778,1.653,8.1,1111122 
DISL,ioos:station:DISL:DISL:1,2015-07-01T01:30:00Z,30.2513,-88.0778,1.673,7.89,1111122 
DISL,ioos:station:DISL:DISL:1,2015-07-01T02:00:00Z,30.2513,-88.0778,1.674,7.99,1111122 
DISL,ioos:station:DISL:DISL:1,2015-07-01T02:30:00Z,30.2513,-88.0778,1.667,7.46,1111122 
DISL,ioos:station:DISL:DISL:1,2015-07-01T03:00:00Z,30.2513,-88.0778,1.662,6.82,1111122 
DISL,ioos:station:DISL:DISL:1,2015-07-01T03:30:00Z,30.2513,-88.0778,1.681,6.88,1111122 
DISL,ioos:station:DISL:DISL:1,2015-07-01T04:00:00Z,30.2513,-88.0778,1.67,6.92,1111122 
DISL,ioos:station:DISL:DISL:1,2015-07-01T04:30:00Z,30.2513,-88.0778,1.722,6.86,1111122 
DISL,ioos:station:DISL:DISL:1,2015-07-01T05:00:00Z,30.2513,-88.0778,1.674,6.62,1111122 
DISL,ioos:station:DISL:DISL:1,2015-07-01T05:30:00Z,30.2513,-88.0778,1.738,6.6,1111122 
DISL,ioos:station:DISL:DISL:1,2015-07-01T06:00:00Z,30.2513,-88.0778,1.815,6.32,1111122 
DISL,ioos:station:DISL:DISL:1,2015-07-01T06:30:00Z,30.2513,-88.0778,1.773,6.59,1111122 
DISL,ioos:station:DISL:DISL:1,2015-07-01T07:00:00Z,30.2513,-88.0778,1.83,6.51,1111122 
DISL,ioos:station:DISL:DISL:1,2015-07-01T07:30:00Z,30.2513,-88.0778,1.805,5.56,1111122 
DISL,ioos:station:DISL:DISL:1,2015-07-01T08:00:00Z,30.2513,-88.0778,1.839,5.8,1111122 
DISL,ioos:station:DISL:DISL:1,2015-07-01T08:30:00Z,30.2513,-88.0778,1.842,6.08,1111122 
DISL,ioos:station:DISL:DISL:1,2015-07-01T09:00:00Z,30.2513,-88.0778,1.894,5.94,1111122 
DISL,ioos:station:DISL:DISL:1,2015-07-01T09:30:00Z,30.2513,-88.0778,1.917,5.75,1111122 
DISL,ioos:station:DISL:DISL:1,2015-07-01T10:00:00Z,30.2513,-88.0778,1.947,5.53,1111122 
DISL,ioos:station:DISL:DISL:1,2015-07-01T10:30:00Z,30.2513,-88.0778,1.937,5.47,1111122 
DISL,ioos:station:DISL:DISL:1,2015-07-01T11:00:00Z,30.2513,-88.0778,1.992,5.59,1111122 
DISL,ioos:station:DISL:DISL:1,2015-07-01T11:30:00Z,30.2513,-88.0778,2.009,5.36,1111122 
DISL,ioos:station:DISL:DISL:1,2015-07-01T12:00:00Z,30.2513,-88.0778,2.075,4.94,1111122 
DISL,ioos:station:DISL:DISL:1,2015-07-01T12:30:00Z,30.2513,-88.0778,2.078,5.5,1111122 
DISL,ioos:station:DISL:DISL:1,2015-07-01T13:00:00Z,30.2513,-88.0778,2.088,5.62,1111122 
DISL,ioos:station:DISL:DISL:1,2015-07-01T13:30:00Z,30.2513,-88.0778,2.111,5.8,1111122 
DISL,ioos:station:DISL:DISL:1,2015-07-01T14:00:00Z,30.2513,-88.0778,2.12,5.77,1111122 
DISL,ioos:station:DISL:DISL:1,2015-07-01T14:30:00Z,30.2513,-88.0778,2.14,5.76,1111122 
DISL,ioos:station:DISL:DISL:1,2015-07-01T15:00:00Z,30.2513,-88.0778,2.158,5.66,1111122 
DISL,ioos:station:DISL:DISL:1,2015-07-01T15:30:00Z,30.2513,-88.0778,2.162,6.24,1111122 
DISL,ioos:station:DISL:DISL:1,2015-07-01T16:00:00Z,30.2513,-88.0778,2.151,6.1,1111122 
DISL,ioos:station:DISL:DISL:1,2015-07-01T16:30:00Z,30.2513,-88.0778,2.135,6.31,1111122 
DISL,ioos:station:DISL:DISL:1,2015-07-01T17:00:00Z,30.2513,-88.0778,2.119,6.05,1111122 
DISL,ioos:station:DISL:DISL:1,2015-07-01T17:30:00Z,30.2513,-88.0778,2.1,6.73,1111122 
DISL,ioos:station:DISL:DISL:1,2015-07-01T18:00:00Z,30.2513,-88.0778,2.071,6.96,1111122 
DISL,ioos:station:DISL:DISL:1,2015-07-01T18:30:00Z,30.2513,-88.0778,2.053,6.65,1111122 
DISL,ioos:station:DISL:DISL:1,2015-07-01T19:00:00Z,30.2513,-88.0778,2.032,7.22,1111122 
DISL,ioos:station:DISL:DISL:1,2015-07-01T19:30:00Z,30.2513,-88.0778,2.019,7.27,1111122 
DISL,ioos:station:DISL:DISL:1,2015-07-01T20:00:00Z,30.2513,-88.0778,1.922,7.59,1111122 
DISL,ioos:station:DISL:DISL:1,2015-07-01T20:30:00Z,30.2513,-88.0778,1.885,7.72,1111122 
DISL,ioos:station:DISL:DISL:1,2015-07-01T21:00:00Z,30.2513,-88.0778,1.86,7.59,1111122 
DISL,ioos:station:DISL:DISL:1,2015-07-01T21:30:00Z,30.2513,-88.0778,1.831,7.71,1111122 
DISL,ioos:station:DISL:DISL:1,2015-07-01T22:00:00Z,30.2513,-88.0778,1.79,7.86,1111122 
DISL,ioos:station:DISL:DISL:1,2015-07-01T22:30:00Z,30.2513,-88.0778,1.776,7.89,1111122 
DISL,ioos:station:DISL:DISL:1,2015-07-01T23:00:00Z,30.2513,-88.0778,1.743,7.86,1111122 
DISL,ioos:station:DISL:DISL:1,2015-07-01T23:30:00Z,30.2513,-88.0778,1.734,7.86,1111122 
DISL,ioos:station:DISL:DISL:1,2015-07-02T00:00:00Z,30.2513,-88.0778,1.757,7.98,1111122 
DISL,ioos:station:DISL:DISL:1,2015-07-02T00:30:00Z,30.2513,-88.0778,1.742,7.71,1111122 
DISL,ioos:station:DISL:DISL:1,2015-07-02T01:00:00Z,30.2513,-88.0778,1.758,8.13,1111122 
DISL,ioos:station:DISL:DISL:1,2015-07-02T01:30:00Z,30.2513,-88.0778,1.755,8.34,1111122 
DISL,ioos:station:DISL:DISL:1,2015-07-02T02:00:00Z,30.2513,-88.0778,1.687,7.73,1111122 
DISL,ioos:station:DISL:DISL:1,2015-07-02T02:30:00Z,30.2513,-88.0778,1.679,7.83,1111122 
DISL,ioos:station:DISL:DISL:1,2015-07-02T03:00:00Z,30.2513,-88.0778,1.686,7.45,1111122 
DISL,ioos:station:DISL:DISL:1,2015-07-02T03:30:00Z,30.2513,-88.0778,1.677,7.62,1111122 
DISL,ioos:station:DISL:DISL:1,2015-07-02T04:00:00Z,30.2513,-88.0778,1.674,7.29,1111122 
DISL,ioos:station:DISL:DISL:1,2015-07-02T04:30:00Z,30.2513,-88.0778,1.706,7.09,1111122 
DISL,ioos:station:DISL:DISL:1,2015-07-02T05:00:00Z,30.2513,-88.0778,1.751,6.88,1111122 
DISL,ioos:station:DISL:DISL:1,2015-07-02T05:30:00Z,30.2513,-88.0778,1.741,6.93,1111122 
DISL,ioos:station:DISL:DISL:1,2015-07-02T06:00:00Z,30.2513,-88.0778,1.754,6.7,1111122 
DISL,ioos:station:DISL:DISL:1,2015-07-02T06:30:00Z,30.2513,-88.0778,1.765,6.38,1111122 
DISL,ioos:station:DISL:DISL:1,2015-07-02T07:00:00Z,30.2513,-88.0778,1.773,6.53,1111122 
DISL,ioos:station:DISL:DISL:1,2015-07-02T07:30:00Z,30.2513,-88.0778,1.789,6.77,1111122 
DISL,ioos:station:DISL:DISL:1,2015-07-02T08:00:00Z,30.2513,-88.0778,1.824,6.21,1111122 
DISL,ioos:station:DISL:DISL:1,2015-07-02T08:30:00Z,30.2513,-88.0778,1.857,5.92,1111122 
DISL,ioos:station:DISL:DISL:1,2015-07-02T09:00:00Z,30.2513,-88.0778,1.882,5.53,1111122 
DISL,ioos:station:DISL:DISL:1,2015-07-02T09:30:00Z,30.2513,-88.0778,1.915,5.5,1111122 
DISL,ioos:station:DISL:DISL:1,2015-07-02T10:00:00Z,30.2513,-88.0778,1.947,5.31,1111122 
DISL,ioos:station:DISL:DISL:1,2015-07-02T10:30:00Z,30.2513,-88.0778,1.997,5.68,1111122 
DISL,ioos:station:DISL:DISL:1,2015-07-02T11:00:00Z,30.2513,-88.0778,1.961,5.59,1111122 
DISL,ioos:station:DISL:DISL:1,2015-07-02T11:30:00Z,30.2513,-88.0778,2.067,5.62,1111122 
DISL,ioos:station:DISL:DISL:1,2015-07-02T12:00:00Z,30.2513,-88.0778,2.052,5.63,1111122 
DISL,ioos:station:DISL:DISL:1,2015-07-02T12:30:00Z,30.2513,-88.0778,2.085,5.35,1111122 
DISL,ioos:station:DISL:DISL:1,2015-07-02T13:00:00Z,30.2513,-88.0778,2.112,5.64,1111122 
DISL,ioos:station:DISL:DISL:1,2015-07-02T13:30:00Z,30.2513,-88.0778,2.183,5.48,1111122 
DISL,ioos:station:DISL:DISL:1,2015-07-02T14:00:00Z,30.2513,-88.0778,2.195,5.39,1111122 
DISL,ioos:station:DISL:DISL:1,2015-07-02T14:30:00Z,30.2513,-88.0778,2.202,5.68,1111122 
DISL,ioos:station:DISL:DISL:1,2015-07-02T15:00:00Z,30.2513,-88.0778,2.242,6.01,1111122 
DISL,ioos:station:DISL:DISL:1,2015-07-02T15:30:00Z,30.2513,-88.0778,2.261,6.02,1111122 
DISL,ioos:station:DISL:DISL:1,2015-07-02T16:00:00Z,30.2513,-88.0778,2.223,5.86,1111122 
DISL,ioos:station:DISL:DISL:1,2015-07-02T16:30:00Z,30.2513,-88.0778,2.219,5.92,1111122 
DISL,ioos:station:DISL:DISL:1,2015-07-02T17:00:00Z,30.2513,-88.0778,2.242,5.85,1111122 
DISL,ioos:station:DISL:DISL:1,2015-07-02T17:30:00Z,30.2513,-88.0778,2.199,6.16,1111122 
DISL,ioos:station:DISL:DISL:1,2015-07-02T18:00:00Z,30.2513,-88.0778,2.191,6.14,1111122 
DISL,ioos:station:DISL:DISL:1,2015-07-02T18:30:00Z,30.2513,-88.0778,2.155,5.98,1111122 
DISL,ioos:station:DISL:DISL:1,2015-07-02T19:00:00Z,30.2513,-88.0778,2.124,6.44,1111122 
DISL,ioos:station:DISL:DISL:1,2015-07-02T19:30:00Z,30.2513,-88.0778,2.099,6.8,1111122 
DISL,ioos:station:DISL:DISL:1,2015-07-02T20:00:00Z,30.2513,-88.0778,2.031,6.83,1111122 
DISL,ioos:station:DISL:DISL:1,2015-07-02T20:30:00Z,30.2513,-88.0778,2.007,7.02,1111122 
DISL,ioos:station:DISL:DISL:1,2015-07-02T21:00:00Z,30.2513,-88.0778,1.973,7.06,1111122 
DISL,ioos:station:DISL:DISL:1,2015-07-02T21:30:00Z,30.2513,-88.0778,1.942,7.45,1111122 
DISL,ioos:station:DISL:DISL:1,2015-07-02T22:00:00Z,30.2513,-88.0778,1.884,7.3,1111122 
DISL,ioos:station:DISL:DISL:1,2015-07-02T22:30:00Z,30.2513,-88.0778,1.875,7.97,1111122 
DISL,ioos:station:DISL:DISL:1,2015-07-02T23:00:00Z,30.2513,-88.0778,1.834,8.08,1111122 
DISL,ioos:station:DISL:DISL:1,2015-07-02T23:30:00Z,30.2513,-88.0778,1.813,8.12,1111122 
DISL,ioos:station:DISL:DISL:1,2015-07-03T00:00:00Z,30.2513,-88.0778,1.784,7.77,1111122 
DISL,ioos:station:DISL:DISL:1,2015-07-03T00:30:00Z,30.2513,-88.0778,1.763,7.61,1111122 
DISL,ioos:station:DISL:DISL:1,2015-07-03T01:00:00Z,30.2513,-88.0778,1.759,7.48,1111122 
DISL,ioos:station:DISL:DISL:1,2015-07-03T01:30:00Z,30.2513,-88.0778,1.747,7.53,1111122 
DISL,ioos:station:DISL:DISL:1,2015-07-03T02:00:00Z,30.2513,-88.0778,1.724,7.46,1111122 
DISL,ioos:station:DISL:DISL:1,2015-07-03T02:30:00Z,30.2513,-88.0778,1.716,7.62,1111122 
DISL,ioos:station:DISL:DISL:1,2015-07-03T03:00:00Z,30.2513,-88.0778,1.707,7.63,1111122 
DISL,ioos:station:DISL:DISL:1,2015-07-03T03:30:00Z,30.2513,-88.0778,1.705,7.57,1111122 
DISL,ioos:station:DISL:DISL:1,2015-07-03T04:00:00Z,30.2513,-88.0778,1.701,7.51,1111122 
DISL,ioos:station:DISL:DISL:1,2015-07-03T04:30:00Z,30.2513,-88.0778,1.715,7.02,1111122 
DISL,ioos:station:DISL:DISL:1,2015-07-03T05:00:00Z,30.2513,-88.0778,1.727,6.78,1111122 
DISL,ioos:station:DISL:DISL:1,2015-07-03T05:30:00Z,30.2513,-88.0778,1.745,6.99,1111122 
DISL,ioos:station:DISL:DISL:1,2015-07-03T06:00:00Z,30.2513,-88.0778,1.74,6.0,1111122 
DISL,ioos:station:DISL:DISL:1,2015-07-03T06:30:00Z,30.2513,-88.0778,1.773,6.43,1111122 
DISL,ioos:station:DISL:DISL:1,2015-07-03T07:00:00Z,30.2513,-88.0778,1.787,6.63,1111122 
DISL,ioos:station:DISL:DISL:1,2015-07-03T07:30:00Z,30.2513,-88.0778,1.812,6.49,1111122 
DISL,ioos:station:DISL:DISL:1,2015-07-03T08:00:00Z,30.2513,-88.0778,1.842,6.29,1111122 
DISL,ioos:station:DISL:DISL:1,2015-07-03T08:30:00Z,30.2513,-88.0778,1.849,6.01,1111122 
DISL,ioos:station:DISL:DISL:1,2015-07-03T09:00:00Z,30.2513,-88.0778,1.871,5.98,1111122 
DISL,ioos:station:DISL:DISL:1,2015-07-03T09:30:00Z,30.2513,-88.0778,1.9,5.86,1111122 
DISL,ioos:station:DISL:DISL:1,2015-07-03T10:00:00Z,30.2513,-88.0778,1.927,5.77,1111122 
DISL,ioos:station:DISL:DISL:1,2015-07-03T10:30:00Z,30.2513,-88.0778,1.975,6.04,1111122 
DISL,ioos:station:DISL:DISL:1,2015-07-03T11:00:00Z,30.2513,-88.0778,1.988,5.84,1111122 
DISL,ioos:station:DISL:DISL:1,2015-07-03T11:30:00Z,30.2513,-88.0778,2.003,5.79,1111122 
DISL,ioos:station:DISL:DISL:1,2015-07-03T12:00:00Z,30.2513,-88.0778,2.043,5.59,1111122 
DISL,ioos:station:DISL:DISL:1,2015-07-03T12:30:00Z,30.2513,-88.0778,2.086,5.54,1111122 
DISL,ioos:station:DISL:DISL:1,2015-07-03T13:00:00Z,30.2513,-88.0778,2.127,5.53,1111122 
DISL,ioos:station:DISL:DISL:1,2015-07-03T13:30:00Z,30.2513,-88.0778,2.156,5.44,1111122 
DISL,ioos:station:DISL:DISL:1,2015-07-03T14:00:00Z,30.2513,-88.0778,2.165,5.6,1111122 
DISL,ioos:station:DISL:DISL:1,2015-07-03T14:30:00Z,30.2513,-88.0778,2.202,5.81,1111122 
DISL,ioos:station:DISL:DISL:1,2015-07-03T15:00:00Z,30.2513,-88.0778,2.215,6.01,1111122 
DISL,ioos:station:DISL:DISL:1,2015-07-03T15:30:00Z,30.2513,-88.0778,2.217,6.01,1111122 
DISL,ioos:station:DISL:DISL:1,2015-07-03T16:00:00Z,30.2513,-88.0778,2.243,5.83,1111122 
DISL,ioos:station:DISL:DISL:1,2015-07-03T16:30:00Z,30.2513,-88.0778,2.248,6.25,1111122 
DISL,ioos:station:DISL:DISL:1,2015-07-03T17:00:00Z,30.2513,-88.0778,2.254,6.4,1111122 
DISL,ioos:station:DISL:DISL:1,2015-07-03T17:30:00Z,30.2513,-88.0778,2.232,6.41,1111122 
DISL,ioos:station:DISL:DISL:1,2015-07-03T18:00:00Z,30.2513,-88.0778,2.21,6.33,1111122 
DISL,ioos:station:DISL:DISL:1,2015-07-03T18:30:00Z,30.2513,-88.0778,2.201,6.97,1111122 
DISL,ioos:station:DISL:DISL:1,2015-07-03T19:00:00Z,30.2513,-88.0778,2.188,6.96,1111122 
DISL,ioos:station:DISL:DISL:1,2015-07-03T19:30:00Z,30.2513,-88.0778,2.161,6.94,1111122 
DISL,ioos:station:DISL:DISL:1,2015-07-03T20:00:00Z,30.2513,-88.0778,2.131,7.3,1111122 
DISL,ioos:station:DISL:DISL:1,2015-07-03T20:30:00Z,30.2513,-88.0778,2.111,7.43,1111122 
DISL,ioos:station:DISL:DISL:1,2015-07-03T21:00:00Z,30.2513,-88.0778,2.041,7.45,1111122 
DISL,ioos:station:DISL:DISL:1,2015-07-03T21:30:00Z,30.2513,-88.0778,2.002,7.57,1111122 
DISL,ioos:station:DISL:DISL:1,2015-07-03T22:00:00Z,30.2513,-88.0778,1.973,7.63,1111122 
DISL,ioos:station:DISL:DISL:1,2015-07-03T22:30:00Z,30.2513,-88.0778,1.937,8.44,1111122 
DISL,ioos:station:DISL:DISL:1,2015-07-03T23:00:00Z,30.2513,-88.0778,1.908,8.72,1111122 
DISL,ioos:station:DISL:DISL:1,2015-07-03T23:30:00Z,30.2513,-88.0778,1.9,9.19,1111122 
DISL,ioos:station:DISL:DISL:1,2015-07-04T00:00:00Z,30.2513,-88.0778,1.886,8.55,1111122 
DISL,ioos:station:DISL:DISL:1,2015-07-04T00:30:00Z,30.2513,-88.0778,1.838,8.56,1111122 
DISL,ioos:station:DISL:DISL:1,2015-07-04T01:00:00Z,30.2513,-88.0778,1.83,8.19,1111122 
DISL,ioos:station:DISL:DISL:1,2015-07-04T01:30:00Z,30.2513,-88.0778,1.817,7.74,1111122 
DISL,ioos:station:DISL:DISL:1,2015-07-04T02:00:00Z,30.2513,-88.0778,1.797,7.67,1111122 
DISL,ioos:station:DISL:DISL:1,2015-07-04T02:30:00Z,30.2513,-88.0778,1.791,7.62,1111122 
DISL,ioos:station:DISL:DISL:1,2015-07-04T03:00:00Z,30.2513,-88.0778,1.763,7.7,1111122 
DISL,ioos:station:DISL:DISL:1,2015-07-04T03:30:00Z,30.2513,-88.0778,1.772,7.71,1111122 
DISL,ioos:station:DISL:DISL:1,2015-07-04T04:00:00Z,30.2513,-88.0778,1.771,7.44,1111122 
DISL,ioos:station:DISL:DISL:1,2015-07-04T04:30:00Z,30.2513,-88.0778,1.789,7.76,1111122 
DISL,ioos:station:DISL:DISL:1,2015-07-04T05:00:00Z,30.2513,-88.0778,1.8,7.25,1111122 
DISL,ioos:station:DISL:DISL:1,2015-07-04T05:30:00Z,30.2513,-88.0778,1.792,7.02,1111122 
DISL,ioos:station:DISL:DISL:1,2015-07-04T06:00:00Z,30.2513,-88.0778,1.789,6.45,1111122 
DISL,ioos:station:DISL:DISL:1,2015-07-04T06:30:00Z,30.2513,-88.0778,1.798,6.63,1111122 
DISL,ioos:station:DISL:DISL:1,2015-07-04T07:00:00Z,30.2513,-88.0778,1.822,6.78,1111122 
DISL,ioos:station:DISL:DISL:1,2015-07-04T07:30:00Z,30.2513,-88.0778,1.841,6.62,1111122 
DISL,ioos:station:DISL:DISL:1,2015-07-04T08:00:00Z,30.2513,-88.0778,1.859,6.59,1111122 
DISL,ioos:station:DISL:DISL:1,2015-07-04T08:30:00Z,30.2513,-88.0778,1.875,6.56,1111122 
DISL,ioos:station:DISL:DISL:1,2015-07-04T09:00:00Z,30.2513,-88.0778,1.879,6.62,1111122 
DISL,ioos:station:DISL:DISL:1,2015-07-04T09:30:00Z,30.2513,-88.0778,1.919,6.51,1111122 
DISL,ioos:station:DISL:DISL:1,2015-07-04T10:00:00Z,30.2513,-88.0778,1.942,6.04,1111122 
DISL,ioos:station:DISL:DISL:1,2015-07-04T10:30:00Z,30.2513,-88.0778,1.963,5.99,1111122 
DISL,ioos:station:DISL:DISL:1,2015-07-04T11:00:00Z,30.2513,-88.0778,1.978,6.01,1111122 
DISL,ioos:station:DISL:DISL:1,2015-07-04T11:30:00Z,30.2513,-88.0778,1.994,5.97,1111122 
DISL,ioos:station:DISL:DISL:1,2015-07-04T12:00:00Z,30.2513,-88.0778,2.029,6.02,1111122 
DISL,ioos:station:DISL:DISL:1,2015-07-04T12:30:00Z,30.2513,-88.0778,2.053,6.02,1111122 
DISL,ioos:station:DISL:DISL:1,2015-07-04T13:00:00Z,30.2513,-88.0778,2.078,5.87,1111122 
DISL,ioos:station:DISL:DISL:1,2015-07-04T13:30:00Z,30.2513,-88.0778,2.099,5.68,1111122 
DISL,ioos:station:DISL:DISL:1,2015-07-04T14:00:00Z,30.2513,-88.0778,2.123,5.52,1111122 
DISL,ioos:station:DISL:DISL:1,2015-07-04T14:30:00Z,30.2513,-88.0778,2.144,5.43,1111122 
DISL,ioos:station:DISL:DISL:1,2015-07-04T15:00:00Z,30.2513,-88.0778,2.164,5.49,1111122 
DISL,ioos:station:DISL:DISL:1,2015-07-04T15:30:00Z,30.2513,-88.0778,2.185,5.24,1111122 
DISL,ioos:station:DISL:DISL:1,2015-07-04T16:00:00Z,30.2513,-88.0778,2.191,5.42,1111122 
DISL,ioos:station:DISL:DISL:1,2015-07-04T16:30:00Z,30.2513,-88.0778,2.183,6.07,1111122 
DISL,ioos:station:DISL:DISL:1,2015-07-04T17:00:00Z,30.2513,-88.0778,2.203,6.58,1111122 
DISL,ioos:station:DISL:DISL:1,2015-07-04T17:30:00Z,30.2513,-88.0778,2.205,6.73,1111122 
DISL,ioos:station:DISL:DISL:1,2015-07-04T18:00:00Z,30.2513,-88.0778,2.197,6.6,1111122 
DISL,ioos:station:DISL:DISL:1,2015-07-04T18:30:00Z,30.2513,-88.0778,2.179,6.84,1111122 
DISL,ioos:station:DISL:DISL:1,2015-07-04T19:00:00Z,30.2513,-88.0778,2.152,7.15,1111122 
DISL,ioos:station:DISL:DISL:1,2015-07-04T19:30:00Z,30.2513,-88.0778,2.155,7.77,1111122 
DISL,ioos:station:DISL:DISL:1,2015-07-04T20:00:00Z,30.2513,-88.0778,2.13,7.52,1111122 
DISL,ioos:station:DISL:DISL:1,2015-07-04T20:30:00Z,30.2513,-88.0778,2.09,7.9,1111122 
DISL,ioos:station:DISL:DISL:1,2015-07-04T21:00:00Z,30.2513,-88.0778,2.065,7.83,1111122 
DISL,ioos:station:DISL:DISL:1,2015-07-04T21:30:00Z,30.2513,-88.0778,2.038,7.72,1111122 
DISL,ioos:station:DISL:DISL:1,2015-07-04T22:00:00Z,30.2513,-88.0778,2.012,7.13,1111122 
DISL,ioos:station:DISL:DISL:1,2015-07-04T22:30:00Z,30.2513,-88.0778,1.984,7.54,1111122 
DISL,ioos:station:DISL:DISL:1,2015-07-04T23:00:00Z,30.2513,-88.0778,1.953,8.27,1111122 
DISL,ioos:station:DISL:DISL:1,2015-07-04T23:30:00Z,30.2513,-88.0778,1.929,8.77,1111122 
DISL,ioos:station:DISL:DISL:1,2015-07-05T00:00:00Z,30.2513,-88.0778,1.959,8.28,1111122 
DISL,ioos:station:DISL:DISL:1,2015-07-05T00:30:00Z,30.2513,-88.0778,1.949,8.37,1111122 
DISL,ioos:station:DISL:DISL:1,2015-07-05T01:00:00Z,30.2513,-88.0778,1.855,7.36,1111122 
DISL,ioos:station:DISL:DISL:1,2015-07-05T01:30:00Z,30.2513,-88.0778,1.827,8.45,1111122 
DISL,ioos:station:DISL:DISL:1,2015-07-05T02:00:00Z,30.2513,-88.0778,1.809,7.24,1111122 
DISL,ioos:station:DISL:DISL:1,2015-07-05T02:30:00Z,30.2513,-88.0778,1.836,7.18,1111122 
DISL,ioos:station:DISL:DISL:1,2015-07-05T03:00:00Z,30.2513,-88.0778,1.776,7.62,1111122 
DISL,ioos:station:DISL:DISL:1,2015-07-05T03:30:00Z,30.2513,-88.0778,1.75,7.59,1111122 
DISL,ioos:station:DISL:DISL:1,2015-07-05T04:00:00Z,30.2513,-88.0778,1.762,7.54,1111122 
DISL,ioos:station:DISL:DISL:1,2015-07-05T04:30:00Z,30.2513,-88.0778,1.752,7.36,1111122 
DISL,ioos:station:DISL:DISL:1,2015-07-05T05:00:00Z,30.2513,-88.0778,1.766,7.19,1111122 
DISL,ioos:station:DISL:DISL:1,2015-07-05T05:30:00Z,30.2513,-88.0778,1.782,7.17,1111122 
DISL,ioos:station:DISL:DISL:1,2015-07-05T06:00:00Z,30.2513,-88.0778,1.786,6.97,1111122 
DISL,ioos:station:DISL:DISL:1,2015-07-05T06:30:00Z,30.2513,-88.0778,1.785,6.93,1111122 
DISL,ioos:station:DISL:DISL:1,2015-07-05T07:00:00Z,30.2513,-88.0778,1.801,6.92,1111122 
DISL,ioos:station:DISL:DISL:1,2015-07-05T07:30:00Z,30.2513,-88.0778,1.818,6.84,1111122 
DISL,ioos:station:DISL:DISL:1,2015-07-05T08:00:00Z,30.2513,-88.0778,1.837,6.65,1111122 
DISL,ioos:station:DISL:DISL:1,2015-07-05T08:30:00Z,30.2513,-88.0778,1.854,6.02,1111122 
DISL,ioos:station:DISL:DISL:1,2015-07-05T09:00:00Z,30.2513,-88.0778,1.857,6.46,1111122 
DISL,ioos:station:DISL:DISL:1,2015-07-05T09:30:00Z,30.2513,-88.0778,1.867,6.46,1111122 
DISL,ioos:station:DISL:DISL:1,2015-07-05T10:00:00Z,30.2513,-88.0778,1.906,5.67,1111122 
DISL,ioos:station:DISL:DISL:1,2015-07-05T10:30:00Z,30.2513,-88.0778,1.935,5.7,1111122 
DISL,ioos:station:DISL:DISL:1,2015-07-05T11:00:00Z,30.2513,-88.0778,1.906,5.26,1111122 
DISL,ioos:station:DISL:DISL:1,2015-07-05T11:30:00Z,30.2513,-88.0778,1.935,4.95,1111122 
DISL,ioos:station:DISL:DISL:1,2015-07-05T12:00:00Z,30.2513,-88.0778,1.968,5.27,1111122 
DISL,ioos:station:DISL:DISL:1,2015-07-05T12:30:00Z,30.2513,-88.0778,2.075,5.43,1111122 
DISL,ioos:station:DISL:DISL:1,2015-07-05T13:00:00Z,30.2513,-88.0778,2.084,5.46,1111122 
DISL,ioos:station:DISL:DISL:1,2015-07-05T13:30:00Z,30.2513,-88.0778,2.041,5.34,1111122 
DISL,ioos:station:DISL:DISL:1,2015-07-05T14:00:00Z,30.2513,-88.0778,2.058,5.21,1111122 
DISL,ioos:station:DISL:DISL:1,2015-07-05T14:30:00Z,30.2513,-88.0778,2.111,5.42,1111122 
DISL,ioos:station:DISL:DISL:1,2015-07-05T15:00:00Z,30.2513,-88.0778,2.125,5.43,1111122 
DISL,ioos:station:DISL:DISL:1,2015-07-05T15:30:00Z,30.2513,-88.0778,2.133,5.48,1111122 
DISL,ioos:station:DISL:DISL:1,2015-07-05T16:00:00Z,30.2513,-88.0778,2.145,5.47,1111122 
DISL,ioos:station:DISL:DISL:1,2015-07-05T16:30:00Z,30.2513,-88.0778,2.176,5.28,1111122 
DISL,ioos:station:DISL:DISL:1,2015-07-05T17:00:00Z,30.2513,-88.0778,2.216,5.62,1111122 
DISL,ioos:station:DISL:DISL:1,2015-07-05T17:30:00Z,30.2513,-88.0778,2.206,5.5,1111122 
DISL,ioos:station:DISL:DISL:1,2015-07-05T18:00:00Z,30.2513,-88.0778,2.21,5.63,1111122 
DISL,ioos:station:DISL:DISL:1,2015-07-05T18:30:00Z,30.2513,-88.0778,2.182,5.69,1111122 
DISL,ioos:station:DISL:DISL:1,2015-07-05T19:00:00Z,30.2513,-88.0778,2.116,6.67,1111122 
DISL,ioos:station:DISL:DISL:1,2015-07-05T19:30:00Z,30.2513,-88.0778,2.16,6.45,1111122 
DISL,ioos:station:DISL:DISL:1,2015-07-05T20:00:00Z,30.2513,-88.0778,2.147,6.86,1111122 
DISL,ioos:station:DISL:DISL:1,2015-07-05T20:30:00Z,30.2513,-88.0778,2.098,6.66,1111122 
DISL,ioos:station:DISL:DISL:1,2015-07-05T21:00:00Z,30.2513,-88.0778,2.114,6.66,1111122 
DISL,ioos:station:DISL:DISL:1,2015-07-05T21:30:00Z,30.2513,-88.0778,2.125,6.86,1111122 
DISL,ioos:station:DISL:DISL:1,2015-07-05T22:00:00Z,30.2513,-88.0778,2.14,6.93,1111122 
DISL,ioos:station:DISL:DISL:1,2015-07-05T22:30:00Z,30.2513,-88.0778,1.994,6.92,1111122 
DISL,ioos:station:DISL:DISL:1,2015-07-05T23:00:00Z,30.2513,-88.0778,1.951,6.73,1111122 
DISL,ioos:station:DISL:DISL:1,2015-07-05T23:30:00Z,30.2513,-88.0778,1.919,6.79,1111122 
DISL,ioos:station:DISL:DISL:1,2015-07-06T00:00:00Z,30.2513,-88.0778,1.879,6.67,1111122 
DISL,ioos:station:DISL:DISL:1,2015-07-06T00:30:00Z,30.2513,-88.0778,1.857,6.5,1111122 
DISL,ioos:station:DISL:DISL:1,2015-07-06T01:00:00Z,30.2513,-88.0778,1.833,6.34,1111122 
DISL,ioos:station:DISL:DISL:1,2015-07-06T01:30:00Z,30.2513,-88.0778,1.796,6.31,1111122 
DISL,ioos:station:DISL:DISL:1,2015-07-06T02:00:00Z,30.2513,-88.0778,1.839,5.91,1111122 
DISL,ioos:station:DISL:DISL:1,2015-07-06T02:30:00Z,30.2513,-88.0778,1.833,5.89,1111122 
DISL,ioos:station:DISL:DISL:1,2015-07-06T03:00:00Z,30.2513,-88.0778,1.777,5.73,1111122 
DISL,ioos:station:DISL:DISL:1,2015-07-06T03:30:00Z,30.2513,-88.0778,1.808,6.05,1111122 
DISL,ioos:station:DISL:DISL:1,2015-07-06T04:00:00Z,30.2513,-88.0778,1.797,5.79,1111122 
DISL,ioos:station:DISL:DISL:1,2015-07-06T04:30:00Z,30.2513,-88.0778,1.745,5.92,1111122 
DISL,ioos:station:DISL:DISL:1,2015-07-06T05:00:00Z,30.2513,-88.0778,1.818,5.93,1111122 
DISL,ioos:station:DISL:DISL:1,2015-07-06T05:30:00Z,30.2513,-88.0778,1.836,5.86,1111122 
DISL,ioos:station:DISL:DISL:1,2015-07-06T06:00:00Z,30.2513,-88.0778,1.819,5.93,1111122 
DISL,ioos:station:DISL:DISL:1,2015-07-06T06:30:00Z,30.2513,-88.0778,1.781,5.84,1111122 
DISL,ioos:station:DISL:DISL:1,2015-07-06T07:00:00Z,30.2513,-88.0778,1.815,5.89,1111122 
DISL,ioos:station:DISL:DISL:1,2015-07-06T07:30:00Z,30.2513,-88.0778,1.849,5.63,1111122 
DISL,ioos:station:DISL:DISL:1,2015-07-06T08:00:00Z,30.2513,-88.0778,1.829,5.42,1111122 
DISL,ioos:station:DISL:DISL:1,2015-07-06T08:30:00Z,30.2513,-88.0778,1.809,5.57,1111122 
DISL,ioos:station:DISL:DISL:1,2015-07-06T09:00:00Z,30.2513,-88.0778,1.851,5.6,1111122 
DISL,ioos:station:DISL:DISL:1,2015-07-06T09:30:00Z,30.2513,-88.0778,1.882,5.48,1111122 
DISL,ioos:station:DISL:DISL:1,2015-07-06T10:00:00Z,30.2513,-88.0778,1.887,5.51,1111122 
DISL,ioos:station:DISL:DISL:1,2015-07-06T10:30:00Z,30.2513,-88.0778,1.906,5.3,1111122 
DISL,ioos:station:DISL:DISL:1,2015-07-06T11:00:00Z,30.2513,-88.0778,1.879,5.45,1111122 
DISL,ioos:station:DISL:DISL:1,2015-07-06T11:30:00Z,30.2513,-88.0778,1.891,5.2,1111122 
DISL,ioos:station:DISL:DISL:1,2015-07-06T12:00:00Z,30.2513,-88.0778,1.924,5.37,1111122 
DISL,ioos:station:DISL:DISL:1,2015-07-06T12:30:00Z,30.2513,-88.0778,1.925,5.04,1111122 
DISL,ioos:station:DISL:DISL:1,2015-07-06T13:00:00Z,30.2513,-88.0778,1.939,5.27,1111122 
DISL,ioos:station:DISL:DISL:1,2015-07-06T13:30:00Z,30.2513,-88.0778,1.963,5.25,1111122 
DISL,ioos:station:DISL:DISL:1,2015-07-06T14:00:00Z,30.2513,-88.0778,1.977,5.07,1111122 
DISL,ioos:station:DISL:DISL:1,2015-07-06T14:30:00Z,30.2513,-88.0778,1.995,6.44,1111122 
DISL,ioos:station:DISL:DISL:1,2015-07-06T15:00:00Z,30.2513,-88.0778,1.927,6.2,1111122 
DISL,ioos:station:DISL:DISL:1,2015-07-06T15:30:00Z,30.2513,-88.0778,2.006,5.34,1111122 